Time,TemperatureF,DewpointF,PressureIn,WindDirection,WindDirectionDegrees,WindSpeedMPH,WindSpeedGustMPH,Humidity,HourlyPrecipIn,Conditions,Clouds,dailyrainin,SoftwareType,DateUTC
2013-03-30 00:13:00,59.0,54.0,29.96,SE,125,4.0,9.0,83,0.00,,,0.00,weatherlink.com 1.10,2013-03-30 05:13:00,
2013-03-30 00:28:00,57.8,54.0,29.95,SE,138,3.0,5.0,86,0.00,,,0.00,weatherlink.com 1.10,2013-03-30 05:28:00,
2013-03-30 00:43:00,57.2,53.0,29.94,SE,144,0.0,3.0,87,0.00,,,0.00,weatherlink.com 1.10,2013-03-30 05:43:00,
2013-03-30 00:58:00,56.4,53.0,29.94,SE,144,3.0,3.0,88,0.00,,,0.00,weatherlink.com 1.10,2013-03-30 05:58:00,
2013-03-30 01:13:00,56.9,54.0,29.94,ESE,123,1.0,4.0,89,0.00,,,0.00,weatherlink.com 1.10,2013-03-30 06:13:00,
2013-03-30 01:28:00,56.2,53.0,29.94,SE,124,3.0,4.0,90,0.00,,,0.00,weatherlink.com 1.10,2013-03-30 06:28:00,
2013-03-30 01:43:00,55.1,52.0,29.93,SE,134,2.0,4.0,90,0.00,,,0.00,weatherlink.com 1.10,2013-03-30 06:43:00,
2013-03-30 01:58:00,54.3,52.0,29.93,SSE,157,0.0,0.0,92,0.00,,,0.00,weatherlink.com 1.10,2013-03-30 06:58:00,
2013-03-30 02:13:00,54.7,53.0,29.94,SSE,157,0.0,0.0,93,0.00,,,0.00,weatherlink.com 1.10,2013-03-30 07:13:00,
2013-03-30 02:29:00,53.7,52.0,29.93,South,170,1.0,7.0,93,0.00,,,0.00,weatherlink.com 1.10,2013-03-30 07:29:00,
2013-03-30 02:44:00,54.6,53.0,29.93,South,174,3.0,8.0,95,0.00,,,0.00,weatherlink.com 1.10,2013-03-30 07:44:00,
2013-03-30 02:59:00,54.1,53.0,29.93,SSE,161,1.0,2.0,94,0.00,,,0.00,weatherlink.com 1.10,2013-03-30 07:59:00,
2013-03-30 03:14:00,53.3,52.0,29.93,NNE,19,0.0,3.0,94,0.00,,,0.00,weatherlink.com 1.10,2013-03-30 08:14:00,
2013-03-30 03:29:00,53.3,52.0,29.93,SE,126,1.0,3.0,95,0.00,,,0.00,weatherlink.com 1.10,2013-03-30 08:29:00,
2013-03-30 03:44:00,53.3,52.0,29.93,SE,125,0.0,1.0,95,0.00,,,0.00,weatherlink.com 1.10,2013-03-30 08:44:00,
2013-03-30 03:59:00,52.9,52.0,29.93,SE,125,0.0,1.0,95,0.00,,,0.00,weatherlink.com 1.10,2013-03-30 08:59:00,
2013-03-30 04:14:00,52.3,51.0,29.92,SE,125,0.0,1.0,95,0.00,,,0.00,weatherlink.com 1.10,2013-03-30 09:14:00,
2013-03-30 04:29:00,52.1,51.0,29.93,ESE,114,2.0,2.0,95,0.00,,,0.00,weatherlink.com 1.10,2013-03-30 09:29:00,
2013-03-30 04:44:00,52.3,51.0,29.93,ENE,76,2.0,3.0,96,0.00,,,0.00,weatherlink.com 1.10,2013-03-30 09:44:00,
2013-03-30 04:59:00,52.2,51.0,29.93,ESE,117,2.0,3.0,96,0.00,,,0.00,weatherlink.com 1.10,2013-03-30 09:59:00,
2013-03-30 05:14:00,52.0,51.0,29.93,ESE,112,2.0,5.0,96,0.00,,,0.00,weatherlink.com 1.10,2013-03-30 10:14:00,
2013-03-30 05:29:00,50.8,50.0,29.94,ESE,122,1.0,4.0,96,0.00,,,0.00,weatherlink.com 1.10,2013-03-30 10:29:00,
2013-03-30 05:44:00,50.5,49.0,29.94,ESE,111,0.0,2.0,96,0.00,,,0.00,weatherlink.com 1.10,2013-03-30 10:44:00,
2013-03-30 05:59:00,50.4,49.0,29.93,ESE,112,2.0,4.0,96,0.00,,,0.00,weatherlink.com 1.10,2013-03-30 10:59:00,
2013-03-30 06:14:00,49.7,49.0,29.94,ESE,113,0.0,3.0,96,0.00,,,0.00,weatherlink.com 1.10,2013-03-30 11:14:00,
2013-03-30 06:29:00,49.9,49.0,29.94,ESE,106,0.0,1.0,96,0.00,,,0.00,weatherlink.com 1.10,2013-03-30 11:29:00,
2013-03-30 06:44:00,49.7,49.0,29.94,ESE,105,0.0,1.0,96,0.00,,,0.00,weatherlink.com 1.10,2013-03-30 11:44:00,
2013-03-30 06:59:00,49.7,49.0,29.95,East,96,1.0,2.0,96,0.00,,,0.00,weatherlink.com 1.10,2013-03-30 11:59:00,
2013-03-30 07:14:00,50.1,49.0,29.95,ENE,62,0.0,0.0,97,0.00,,,0.00,weatherlink.com 1.10,2013-03-30 12:14:00,
2013-03-30 07:29:00,50.6,50.0,29.95,East,80,2.0,3.0,97,0.00,,,0.00,weatherlink.com 1.10,2013-03-30 12:29:00,
2013-03-30 07:44:00,50.9,50.0,29.95,East,94,2.0,3.0,97,0.00,,,0.00,weatherlink.com 1.10,2013-03-30 12:44:00,
2013-03-30 07:59:00,51.7,51.0,29.95,East,94,0.0,2.0,97,0.00,,,0.00,weatherlink.com 1.10,2013-03-30 12:59:00,
2013-03-30 08:14:00,50.9,50.0,29.94,ESE,123,1.0,3.0,97,0.00,,,0.00,weatherlink.com 1.10,2013-03-30 13:14:00,
2013-03-30 08:29:00,50.6,50.0,29.94,SE,125,0.0,2.0,97,0.00,,,0.00,weatherlink.com 1.10,2013-03-30 13:29:00,
2013-03-30 08:44:00,52.3,52.0,29.94,ESE,119,2.0,4.0,97,0.00,,,0.00,weatherlink.com 1.10,2013-03-30 13:44:00,
2013-03-30 08:59:00,53.9,53.0,29.94,SE,135,2.0,4.0,97,0.00,,,0.00,weatherlink.com 1.10,2013-03-30 13:59:00,
2013-03-30 09:14:00,54.7,54.0,29.94,SE,142,3.0,6.0,97,0.00,,,0.00,weatherlink.com 1.10,2013-03-30 14:14:00,
2013-03-30 09:29:00,55.7,55.0,29.95,ESE,111,3.0,4.0,97,0.00,,,0.00,weatherlink.com 1.10,2013-03-30 14:29:00,
2013-03-30 09:45:00,57.5,57.0,29.95,ESE,122,1.0,3.0,97,0.00,,,0.00,weatherlink.com 1.10,2013-03-30 14:45:00,
2013-03-30 09:59:00,59.7,57.0,29.95,South,183,0.0,3.0,92,0.00,,,0.00,weatherlink.com 1.10,2013-03-30 14:59:00,
2013-03-30 10:14:00,61.3,58.0,29.94,SE,138,1.0,6.0,89,0.00,,,0.00,weatherlink.com 1.10,2013-03-30 15:14:00,
2013-03-30 10:29:00,64.2,59.0,29.94,SE,128,4.0,8.0,82,0.00,,,0.00,weatherlink.com 1.10,2013-03-30 15:29:00,
2013-03-30 10:44:00,66.3,59.0,29.93,West,271,1.0,7.0,76,0.00,,,0.00,weatherlink.com 1.10,2013-03-30 15:44:00,
2013-03-30 10:59:00,68.1,59.0,29.93,SW,221,4.0,4.0,72,0.00,,,0.00,weatherlink.com 1.10,2013-03-30 15:59:00,
2013-03-30 11:14:00,69.1,58.0,29.93,SE,130,3.0,6.0,68,0.00,,,0.00,weatherlink.com 1.10,2013-03-30 16:14:00,
2013-03-30 11:29:00,69.9,58.0,29.93,WNW,298,1.0,6.0,66,0.00,,,0.00,weatherlink.com 1.10,2013-03-30 16:29:00,
2013-03-30 11:44:00,69.9,58.0,29.93,NW,307,3.0,5.0,67,0.00,,,0.00,weatherlink.com 1.10,2013-03-30 16:44:00,
2013-03-30 11:59:00,71.5,58.0,29.93,ENE,63,4.0,9.0,63,0.00,,,0.00,weatherlink.com 1.10,2013-03-30 16:59:00,
2013-03-30 12:14:00,71.9,57.0,29.93,NE,48,2.0,10.0,59,0.00,,,0.00,weatherlink.com 1.10,2013-03-30 17:14:00,
2013-03-30 12:30:00,72.4,58.0,29.93,East,90,9.0,10.0,60,0.00,,,0.00,weatherlink.com 1.10,2013-03-30 17:30:00,
2013-03-30 12:45:00,73.0,57.0,29.93,North,360,2.0,9.0,57,0.00,,,0.00,weatherlink.com 1.10,2013-03-30 17:45:00,
2013-03-30 13:00:00,72.7,56.0,29.92,NNW,342,8.0,10.0,56,0.00,,,0.00,weatherlink.com 1.10,2013-03-30 18:00:00,
2013-03-30 13:15:00,73.5,57.0,29.91,East,79,4.0,10.0,57,0.00,,,0.00,weatherlink.com 1.10,2013-03-30 18:15:00,
2013-03-30 13:30:00,74.1,57.0,29.90,NNE,30,5.0,16.0,55,0.00,,,0.00,weatherlink.com 1.10,2013-03-30 18:30:00,
2013-03-30 13:45:00,74.7,58.0,29.90,ENE,63,10.0,13.0,56,0.00,,,0.00,weatherlink.com 1.10,2013-03-30 18:45:00,
2013-03-30 14:00:00,75.4,57.0,29.89,WNW,285,1.0,14.0,54,0.00,,,0.00,weatherlink.com 1.10,2013-03-30 19:00:00,
2013-03-30 14:15:00,76.2,57.0,29.87,NE,38,6.0,14.0,51,0.00,,,0.00,weatherlink.com 1.10,2013-03-30 19:15:00,
2013-03-30 14:30:00,77.3,57.0,29.87,East,98,13.0,14.0,49,0.00,,,0.00,weatherlink.com 1.10,2013-03-30 19:30:00,
2013-03-30 14:45:00,77.1,55.0,29.86,East,86,8.0,18.0,46,0.00,,,0.00,weatherlink.com 1.10,2013-03-30 19:45:00,
2013-03-30 15:00:00,77.6,56.0,29.86,East,87,12.0,16.0,48,0.00,,,0.00,weatherlink.com 1.10,2013-03-30 20:00:00,
2013-03-30 15:15:00,77.7,55.0,29.86,ESE,118,8.0,17.0,46,0.00,,,0.00,weatherlink.com 1.10,2013-03-30 20:15:00,
2013-03-30 15:30:00,77.8,55.0,29.85,East,79,11.0,17.0,46,0.00,,,0.00,weatherlink.com 1.10,2013-03-30 20:30:00,
2013-03-30 15:45:00,78.1,54.0,29.85,ESE,109,4.0,13.0,44,0.00,,,0.00,weatherlink.com 1.10,2013-03-30 20:45:00,
2013-03-30 16:00:00,78.1,54.0,29.85,NE,46,3.0,11.0,43,0.00,,,0.00,weatherlink.com 1.10,2013-03-30 21:00:00,
2013-03-30 16:15:00,78.7,54.0,29.85,East,79,7.0,13.0,42,0.00,,,0.00,weatherlink.com 1.10,2013-03-30 21:15:00,
2013-03-30 16:30:00,78.9,53.0,29.84,East,82,7.0,11.0,41,0.00,,,0.00,weatherlink.com 1.10,2013-03-30 21:30:00,
2013-03-30 16:45:00,78.9,53.0,29.84,ESE,109,3.0,13.0,40,0.00,,,0.00,weatherlink.com 1.10,2013-03-30 21:45:00,
2013-03-30 17:00:00,78.6,51.0,29.84,ESE,102,1.0,12.0,38,0.00,,,0.00,weatherlink.com 1.10,2013-03-30 22:00:00,
2013-03-30 17:15:00,79.2,52.0,29.83,East,91,8.0,13.0,39,0.00,,,0.00,weatherlink.com 1.10,2013-03-30 22:15:00,
2013-03-30 17:30:00,79.2,49.0,29.83,East,79,5.0,10.0,35,0.00,,,0.00,weatherlink.com 1.10,2013-03-30 22:30:00,
2013-03-30 17:45:00,79.3,53.0,29.83,East,86,7.0,11.0,40,0.00,,,0.00,weatherlink.com 1.10,2013-03-30 22:45:00,
2013-03-30 18:00:00,79.1,53.0,29.83,ENE,64,8.0,11.0,40,0.00,,,0.00,weatherlink.com 1.10,2013-03-30 23:00:00,
2013-03-30 18:15:00,78.9,51.0,29.83,East,90,7.0,10.0,38,0.00,,,0.00,weatherlink.com 1.10,2013-03-30 23:15:00,
2013-03-30 18:30:00,78.4,51.0,29.82,SE,146,2.0,7.0,39,0.00,,,0.00,weatherlink.com 1.10,2013-03-30 23:30:00,
2013-03-30 18:45:00,78.5,51.0,29.82,East,83,3.0,6.0,39,0.00,,,0.00,weatherlink.com 1.10,2013-03-30 23:45:00,
2013-03-30 19:00:00,77.2,52.0,29.82,ESE,112,2.0,4.0,42,0.00,,,0.00,weatherlink.com 1.10,2013-03-31 00:00:00,
2013-03-30 19:15:00,76.3,53.0,29.82,ENE,68,3.0,4.0,44,0.00,,,0.00,weatherlink.com 1.10,2013-03-31 00:15:00,
2013-03-30 19:30:00,75.7,53.0,29.82,NE,55,4.0,5.0,45,0.00,,,0.00,weatherlink.com 1.10,2013-03-31 00:30:00,
2013-03-30 19:45:00,74.2,53.0,29.82,NE,55,5.0,6.0,48,0.00,,,0.00,weatherlink.com 1.10,2013-03-31 00:45:00,
2013-03-30 20:00:00,73.4,52.0,29.82,ENE,63,4.0,6.0,48,0.00,,,0.00,weatherlink.com 1.10,2013-03-31 01:00:00,
2013-03-30 20:15:00,72.6,52.0,29.82,ENE,71,1.0,6.0,49,0.00,,,0.00,weatherlink.com 1.10,2013-03-31 01:15:00,
2013-03-30 20:30:00,72.3,53.0,29.83,ENE,63,4.0,5.0,50,0.00,,,0.00,weatherlink.com 1.10,2013-03-31 01:30:00,
2013-03-30 20:45:00,71.4,52.0,29.83,East,84,2.0,3.0,50,0.00,,,0.00,weatherlink.com 1.10,2013-03-31 01:45:00,
2013-03-30 21:01:00,68.6,53.0,29.84,SSE,160,2.0,3.0,57,0.00,,,0.00,weatherlink.com 1.10,2013-03-31 02:01:00,
2013-03-30 21:46:00,65.2,52.0,29.85,East,87,1.0,2.0,63,0.00,,,0.00,weatherlink.com 1.10,2013-03-31 02:46:00,
2013-03-30 22:01:00,65.3,53.0,29.85,ESE,111,1.0,3.0,64,0.00,,,0.00,weatherlink.com 1.10,2013-03-31 03:01:00,
2013-03-30 22:16:00,64.7,53.0,29.85,SE,131,0.0,3.0,67,0.00,,,0.00,weatherlink.com 1.10,2013-03-31 03:16:00,
2013-03-30 22:31:00,64.1,55.0,29.85,ESE,109,2.0,2.0,71,0.00,,,0.00,weatherlink.com 1.10,2013-03-31 03:31:00,
2013-03-30 22:46:00,63.9,55.0,29.85,SE,128,1.0,2.0,72,0.00,,,0.00,weatherlink.com 1.10,2013-03-31 03:46:00,
2013-03-30 23:01:00,63.3,55.0,29.84,SSE,147,1.0,2.0,74,0.00,,,0.00,weatherlink.com 1.10,2013-03-31 04:01:00,
2013-03-30 23:16:00,63.1,55.0,29.84,SE,127,1.0,2.0,74,0.00,,,0.00,weatherlink.com 1.10,2013-03-31 04:16:00,
2013-03-30 23:31:00,62.6,55.0,29.84,SE,127,1.0,2.0,75,0.00,,,0.00,weatherlink.com 1.10,2013-03-31 04:31:00,
2013-03-30 23:46:00,62.4,54.0,29.83,SE,134,1.0,4.0,75,0.00,,,0.00,weatherlink.com 1.10,2013-03-31 04:46:00,